Location: Alphen aan den Rijn
(52.1277°N, 4.6689°E)
Time: 06:32:10
(UTC+01:00)

Envisat - Visible Passes

Search period start: 22 November 2017 00:00
Search period end: 02 December 2017 00:00
Orbit: 764 x 766 km, 98.2° (Epoch: 21 November)

Date Brightness Start Highest point End Pass type
(mag) Time Alt. Az. Time Alt. Az. Time Alt. Az.
22 Nov 5.0 17:58:42 10° NE 17:58:42 10° NE 17:59:07 10° NE visible
22 Nov 4.6 19:38:54 22° N 19:38:54 22° N 19:40:49 10° N visible
22 Nov 5.8 21:19:07 12° NW 21:19:07 12° NW 21:19:37 10° NNW visible
23 Nov 6.2 07:36:52 10° ENE 07:37:53 11° E 07:38:54 10° E visible
23 Nov 4.6 19:01:51 19° NNE 19:01:51 19° NNE 19:03:42 10° N visible
23 Nov 5.3 20:42:03 17° NNW 20:42:03 17° NNW 20:43:14 10° NNW visible
24 Nov 4.8 18:24:46 14° NNE 18:24:46 14° NNE 18:26:10 10° NNE visible
24 Nov 4.9 20:04:59 20° N 20:04:59 20° N 20:06:33 10° NNW visible
25 Nov 4.7 19:27:55 20° N 19:27:55 20° N 19:29:37 10° N visible
25 Nov 5.7 21:08:08 13° NNW 21:08:08 13° NNW 21:08:38 10° NNW visible
26 Nov 4.7 18:50:50 17° NNE 18:50:50 17° NNE 18:52:24 10° N visible
26 Nov 5.3 20:31:03 17° NNW 20:31:03 17° NNW 20:32:09 10° NNW visible
27 Nov 4.9 18:13:45 12° NNE 18:13:45 12° NNE 18:14:39 10° NNE visible
27 Nov 4.9 19:53:58 19° N 19:53:58 19° N 19:55:23 10° N visible
28 Nov 4.8 19:16:53 18° N 19:16:53 18° N 19:18:23 10° N visible
28 Nov 5.6 20:57:05 13° NNW 20:57:05 13° NNW 20:57:38 10° NNW visible
29 Nov 4.8 18:39:47 15° NNE 18:39:47 15° NNE 18:41:04 10° N visible
29 Nov 5.2 20:20:00 16° NNW 20:20:00 16° NNW 20:21:02 10° NNW visible
30 Nov 5.0 18:02:42 10° NNE 18:02:42 10° NNE 18:02:54 10° NNE visible
30 Nov 4.9 19:42:54 18° N 19:42:54 18° N 19:44:13 10° N visible
01 Dec 6.0 07:39:36 10° ENE 07:41:20 12° E 07:43:03 10° ESE visible
01 Dec 4.8 19:05:48 17° NNE 19:05:48 17° NNE 19:07:08 10° N visible
01 Dec 5.6 20:46:01 13° NNW 20:46:01 13° NNW 20:46:35 10° NNW visible
